Regional Weather Roundup
Issued by NWS

Home | Current Version | Previous Version | Text Only | Print | Product List | Glossary On
Versions: 1 2 3 4 5 6 7 8 9 10 11 12 13 14 15 16 17 18 19 20 21 22 23 24 25 26 27 28 29 30 31 32 33 34 35 36 37 38 39 40 41 42 43 44 45 46 47 48 49 50
000
ASUS44 KFWD 020815
RWRTX
NORTH TEXAS HOURLY WEATHER ROUNDUP
NATIONAL WEATHER SERVICE FORT WORTH TX
300 AM CDT THU OCT 02 2014

NOTE: "FAIR" INDICATES FEW OR NO CLOUDS BELOW 12,000 FEET WITH NO
SIGNIFICANT WEATHER AND/OR OBSTRUCTIONS TO VISIBILITY.

TXZ118-119-020900-
DALLAS/FORT WORTH METROPLEX

CITY           SKY/WX    TMP DP  RH WIND       PRES   REMARKS
DFW AIRPORT    PTCLDY    80  70  71 S14G24    29.76S
DALLAS LOVE    PTCLDY    79  70  74 S13       29.77S
FTW MEACHAM    PTCLDY    81  69  67 S16       29.76S
DAL-EXECUTIVE  CLEAR     80  70  71 S8        29.78S
FTW-ALLIANCE   MOCLDY    79  69  71 S9G18     29.75S
FTW-NAS-JRB    PTCLDY    82  68  62 S16       29.80F
FTW-SPINKS     CLEAR     79  69  72 S9        29.79S
ARLINGTON      CLEAR     79  69  71 S9        29.77S
GRAND PRAIRIE  CLEAR     79  68  69 S10G17    29.79S
ADDISON        CLEAR     80  69  68 S9        29.79S
MESQUITE       CLEAR     76  70  83 SE7       29.79S
LANCASTER      CLEAR     76  68  76 S3        29.80R
$$

TXZ091>094-102>105-117-120-121-131>134-020900-
NORTH CENTRAL TEXAS

CITY           SKY/WX    TMP DP  RH WIND       PRES   REMARKS
SHRMAN/DENISON PTCLDY    78  68  70 S13       29.77S
GAINESVILLE    MOCLDY    78  67  69 S13       29.78S
BOWIE          MOCLDY    79  66  64 S10G17    29.76S
BRIDGEPORT     PTCLDY    81  63  53 S8        29.78R
DECATUR        PTCLDY    79  67  65 S12       29.77S
DENTON         MOCLDY    80  69  69 S14       29.76S
MCKINNEY       CLEAR     77  70  79 S10       29.78R
GREENVILLE     CLEAR     77  70  78 S10       29.80S
ROCKWALL       CLEAR     77  72  83 S10G16    29.78S
TERRELL        CLEAR     78  72  81 S10       29.80R
WAXAHACHIE     CLEAR     77  71  81 S8        29.80S
CLEBURNE       CLEAR     77  73  88 S8        29.80F
GRANBURY       CLEAR     80  68  67 SE10      29.79S
$$

TXZ083>090-098>101-113>116-127>130-139>142-154-155-020900-
WESTERN NORTH TEXAS

CITY           SKY/WX    TMP DP  RH WIND       PRES   REMARKS
WICHITA FALLS  PTCLDY    79  67  66 S14       29.71R
WF-KICKAPOO    PTCLDY    78  67  69 S12       29.73S
VERNON         CLEAR     75  67  76 S9        29.72S
ABILENE        CLEAR     77  64  64 S12       29.80R
ABILENE-DYESS  CLEAR     79  64  60 S17G23    29.78R
BRECKENRIDGE     N/A     81  65  58 S16       29.77S
GRAHAM         PTCLDY    80  65  60 S8        29.76S
MINERAL WELLS  CLEAR     75  65  70 S8        29.76S
STEPHENVILLE   CLEAR     74  64  73 S3        29.83S
COMANCHE       CLEAR     76  65  67 S8        29.81R
BROWNWOOD      CLEAR     75  66  73 SE6       29.81S
COLEMAN        MOCLDY    76  64  67 SW8       29.82R
BRADY          CLEAR     75  66  73 S7        29.83S
$$

TXZ143>147-156>162-174-175-020900-
CENTRAL TEXAS

CITY           SKY/WX    TMP DP  RH WIND       PRES   REMARKS
WACO           MOCLDY    78  72  81 S15       29.80S
WACO-MCGREGOR  MOCLDY    77  68  73 S15       29.82S
HILLSBORO      CLEAR     77  69  75 S10       29.80S
CORSICANA      CLEAR     77  71  82 S12       29.82S
MEXIA          MOCLDY    75  72  89 S9        29.81S
HEARNE         CLOUDY    77  74  91 SE6       29.83S
CAMERON        CLOUDY    78  74  88 S7        29.82S
TEMPLE         CLOUDY    77  70  78 S18       29.81S
KILLEEN        CLOUDY    79  72  78 S12       29.82R
KILLEEN-SKYLRK CLOUDY    77  68  73 S12       29.81S
FORT HOOD      CLOUDY    79  73  82 S9        29.82R
GATESVILLE     CLEAR     75  70  83 S5        29.84S
HAMILTON       CLEAR     75  66  74 S12G17    29.82F
LAMPASAS       CLEAR     76  73  90 S7        29.83R
$$

TXZ095>097-106>112-122>126-135>138-148>153-164>167-020900-
EAST TEXAS

CITY           SKY/WX    TMP DP  RH WIND       PRES   REMARKS
PARIS          CLEAR     73  64  73 SE8       29.81S
SULPHUR SPRNGS CLEAR     78  73  84 S10       29.82S
MOUNT PLEASANT CLEAR    N/A N/A N/A SE6       29.83S
GILMER         CLEAR     77  73  88 S8        29.84S
MINEOLA        CLEAR     77  73  88 S3        29.82S
TYLER          CLEAR     77  72  84 S12       29.82S
LONGVIEW       MOCLDY    77  72  84 S9        29.84R
MARSHALL       CLOUDY    78  75  90 S7        29.86S
ATHENS         CLEAR     75  72  88 S8        29.82R
PALESTINE      MOCLDY    76  73  90 SE7       29.85R
JACKSONVILLE   CLOUDY    75  73  94 S9        29.87S
HENDERSON      CLOUDY    76  74  93 S8        29.85S
NACOGDOCHES    CLOUDY    77  73  88 S8        29.86S
LUFKIN         CLOUDY    80  75  84 S5        29.86S
$$

SUPPLEMENTAL OBSERVATIONS (CENTRAL)

CITY           SKY/WX    TMP DP  RH WIND       PRES   REMARKS
LAKE TEXOMA      N/A     77  68  73 SE5         N/A
PAT MAYSE LAKE   N/A     75  72  88 E10         N/A
GREENVILLE       N/A     77  72  83 S9          N/A
CEDAR HILL       N/A     79  68  69 S8G20       N/A
ATHENS           N/A     77  72  83 S10         N/A
PALESTINE        N/A     75  72  88 S7          N/A
LAKE LIMESTONE   N/A     75  72  88 S6G15       N/A
MCGREGOR         N/A     77  72  83 S10         N/A
TEMPLE           N/A     79  73  83 S16G24      N/A
$$

SUPPLEMENTAL OBSERVATIONS (WEST)

CITY           SKY/WX    TMP DP  RH WIND       PRES   REMARKS
MILLERS CREEK    N/A     81  64  57 SW13        N/A
POSSUM KINGDOM   N/A     81  64  57 S13         N/A
GRANBURY         N/A     79  66  65 S10         N/A
COMANCHE         N/A     75  63  64 S9          N/A
HAMBY            N/A     77  63  61 S12         N/A
IVIE RESERVOIR   N/A     77  66  69 W3G15       N/A
COLORADO BEND    N/A     73  68  83 S8          N/A
$$

SUPPLEMENTAL OBSERVATIONS (EAST)

CITY           SKY/WX    TMP DP  RH WIND       PRES   REMARKS
CLARKSVILLE      N/A     73  70  88 SE5         N/A
TEXARKANA        N/A     72  68  88 CALM        N/A
N SABINE NF      N/A     77  72  83 MISG        N/A
S SABINE NF      N/A     75  72  88 NW1         N/A
$$

SUPPLEMENTAL OBSERVATIONS ARE A COLLECTION OF AUTOMATED INSTRUMENTS
THAT ARE MAINTAINED BY A VARIETY OF FEDERAL AND STATE AGENCIES.
CERTAIN ELEMENTS...SUCH AS HUMIDITY VALUES AND SUSTAINED WIND
SPEEDS...MAY BE APPROXIMATED.



USA.gov is the U.S. government's official web portal to all federal, state and local government web resources and services.